EW8360 Weather Reports


time (UTC)temp
F
wind
direction
speed
knots
gust
knots
rain 1hr
in
rain 24hr
in
rain mn
in
humidity
%
barometer
mb
20260509223615 68 274 1.7 12.2 0.00 0.00 0.00 69 1010.9
20260509223115 68 354 2.6 12.2 0.00 0.00 0.00 73 1010.9
20260509222617 68 287 3.5 12.2 0.00 0.00 0.00 72 1011.1
20260509222336 68 255 0.9 12.2 0.00 0.00 0.00 72 1011.1
20260509221615 68 319 7.0 8.7 0.00 0.00 0.00 71 1011.1
20260509221336 68 282 4.3 8.7 0.00 0.00 0.00 73 1011.2
20260509220616 68 260 5.2 12.2 0.00 0.00 0.00 70 1011.2
20260509220116 68 275 4.3 12.2 0.00 0.00 0.00 70 1011.2
20260509215840 68 351 4.3 8.7 0.00 0.00 0.00 71 1011.2
20260509215335 68 330 1.7 8.7 0.00 0.00 0.00 71 1011.2
20260509214615 68 348 3.5 8.7 0.00 0.00 0.00 71 1011.3
20260509214116 68 274 3.5 8.7 0.00 0.00 0.00 71 1011.3
20260509213115 68 320 6.1 11.3 0.00 0.00 0.00 71 1011.4
20260509212616 68 301 3.5 11.3 0.00 0.00 0.00 70 1011.5
20260509211613 68 313 4.3 8.7 0.00 0.00 0.00 71 1011.6
20260509211333 68 316 5.2 13.9 0.00 0.00 0.00 72 1011.5
20260509210614 68 311 6.1 13.9 0.00 0.00 0.00 74 1011.6
20260509210114 68 355 7.8 13.0 0.00 0.00 0.00 71 1011.7
20260509205613 68 312 5.2 8.7 0.00 0.00 0.00 70 1011.7
20260509205114 68 5 7.0 11.3 0.00 0.00 0.00 72 1011.6
20260509204839 68 340 2.6 11.3 0.00 0.00 0.00 74 1011.7
20260509204114 67 266 3.5 13.9 0.00 0.00 0.00 72 1011.8
20260509203113 67 356 7.8 10.4 0.00 0.00 0.00 73 1011.7
20260509202833 68 303 4.3 10.4 0.00 0.00 0.00 72 1011.7
20260509202332 68 349 6.1 13.0 0.00 0.00 0.00 74 1011.7
20260509201613 68 346 7.8 13.0 0.00 0.00 0.00 73 1011.7
20260509201112 68 357 4.3 13.0 0.00 0.00 0.00 72 1011.6
20260509200611 69 318 5.2 11.3 0.00 0.00 0.00 70 1011.7
20260509200113 69 259 5.2 11.3 0.00 0.00 0.00 70 1011.7
20260509195612 69 307 8.7 11.3 0.00 0.00 0.00 71 1011.7
20260509195112 69 350 3.5 8.7 0.00 0.00 0.00 70 1011.6
20260509194612 69 342 4.3 8.7 0.00 0.00 0.00 69 1011.7
20260509194335 69 254 3.5 11.3 0.00 0.00 0.00 71 1011.7
20260509193833 69 284 2.6 11.3 0.00 0.00 0.00 70 1011.8
20260509193112 69 338 7.8 10.4 0.00 0.00 0.00 70 1011.8
20260509192610 69 287 4.3 8.7 0.00 0.00 0.00 71 1011.9
20260509192330 69 348 7.0 11.3 0.00 0.00 0.00 71 1011.9
20260509191612 69 326 5.2 11.3 0.00 0.00 0.00 69 1012.0
20260509191111 69 338 5.2 10.4 0.00 0.00 0.00 71 1011.9
20260509190611 68 295 4.3 7.8 0.00 0.00 0.00 69 1011.9
20260509190111 68 301 1.7 7.8 0.00 0.00 0.00 70 1011.8
20260509185611 68 291 4.3 7.8 0.00 0.00 0.00 71 1011.9
20260509185110 68 342 3.5 8.7 0.00 0.00 0.00 71 1011.9
20260509184613 69 320 7.8 8.7 0.00 0.00 0.00 71 1011.9
20260509184111 69 307 6.1 12.2 0.00 0.00 0.00 73 1012.0
20260509183611 69 336 7.8 12.2 0.00 0.00 0.00 73 1012.0
20260509183110 69 335 5.2 7.8 0.00 0.00 0.00 72 1012.0
20260509182838 69 249 2.6 7.8 0.00 0.00 0.00 71 1012.0
20260509181611 69 320 3.5 7.0 0.00 0.00 0.00 71 1012.2
20260509181109 69 340 3.5 7.0 0.00 0.00 0.00 71 1012.1
20260509180111 69 357 4.3 7.0 0.00 0.00 0.00 73 1012.1
20260509175611 69 326 5.2 7.0 0.00 0.00 0.00 71 1012.2
20260509175109 68 316 3.5 7.0 0.00 0.00 0.00 72 1012.2
20260509174608 68 253 1.7 7.0 0.00 0.00 0.00 74 1012.1
20260509174112 68 66 2.6 6.1 0.00 0.00 0.00 73 1012.2
20260509173609 68 264 4.3 6.1 0.00 0.00 0.00 73 1012.1
20260509173108 68 296 3.5 7.0 0.00 0.00 0.00 72 1012.1
20260509172608 67 341 3.5 7.0 0.00 0.00 0.00 74 1012.1
20260509172111 67 21 4.3 6.1 0.00 0.00 0.00 74 1012.1
20260509171610 67 231 0.9 7.0 0.00 0.00 0.00 74 1012.1
20260509171109 67 287 1.7 7.0 0.00 0.00 0.00 75 1012.1
20260509170609 67 325 3.5 6.1 0.00 0.00 0.00 76 1012.2
20260509170108 67 323 3.5 6.1 0.00 0.00 0.00 76 1012.1
20260509165610 66 278 2.6 6.1 0.00 0.00 0.00 76 1012.2
20260509165108 66 326 3.5 5.2 0.00 0.00 0.00 77 1012.1
20260509164828 65 259 0.9 2.6 0.00 0.00 0.00 76 1012.1
20260509164107 65 298 0.9 4.3 0.00 0.00 0.00 74 1012.2
20260509163608 64 235 1.7 4.3 0.00 0.00 0.00 76 1012.2
20260509163110 64 270 1.7 6.1 0.00 0.00 0.00 79 1012.3
20260509162608 63 289 3.5 6.1 0.00 0.00 0.00 81 1012.4
20260509162324 63 266 1.7 4.3 0.00 0.00 0.00 82 1012.4
20260509161608 63 356 1.7 6.1 0.00 0.00 0.00 81 1012.4
20260509161108 63 266 3.5 6.1 0.00 0.00 0.00 83 1012.3
20260509160608 63 336 4.3 6.1 0.00 0.00 0.00 84 1012.3
20260509160106 62 270 0.9 6.1 0.00 0.00 0.00 83 1012.3
20260509155608 62 311 3.5 6.1 0.00 0.00 0.00 84 1012.2
20260509155109 62 294 2.6 2.6 0.00 0.00 0.00 83 1012.3
20260509154606 62 239 0.9 2.6 0.00 0.00 0.00 84 1012.3
20260509154106 62 264 0.9 4.3 0.00 0.00 0.00 85 1012.3
20260509153607 62 282 0.9 5.2 0.00 0.00 0.00 85 1012.4
20260509153108 62 256 0.9 5.2 0.00 0.00 0.00 86 1012.3
20260509152606 61 281 3.5 5.2 0.00 0.00 0.00 86 1012.4
20260509151607 61 258 0.0 2.6 0.00 0.00 0.00 87 1012.3
20260509151106 61 288 0.9 2.6 0.00 0.00 0.00 87 1012.2
20260509150830 61 265 0.0 2.6 0.00 0.00 0.00 87 1012.3
20260509150104 61 260 0.0 2.6 0.00 0.00 0.00 87 1012.3
20260509145606 61 267 1.7 2.6 0.00 0.00 0.00 88 1012.2
20260509145106 61 261 0.0 4.3 0.00 0.00 0.00 88 1012.3
20260509144604 61 268 0.9 4.3 0.00 0.00 0.00 88 1012.3
20260509144104 61 309 2.6 4.3 0.00 0.00 0.00 88 1012.3
20260509143605 61 276 1.7 2.6 0.00 0.00 0.00 88 1012.2
20260509143106 60 279 0.9 2.6 0.00 0.00 0.00 88 1012.3
20260509142605 60 278 0.0 0.0 0.00 0.00 0.00 88 1012.3
20260509142104 60 264 0.0 0.0 0.00 0.00 0.00 88 1012.2
20260509141606 60 269 0.0 1.7 0.00 0.00 0.00 89 1012.3
20260509141105 60 272 0.0 2.6 0.00 0.00 0.00 89 1012.3
20260509140600 60 275 0.9 2.6 0.00 0.00 0.00 89 1012.2
20260509140323 60 264 0.0 1.7 0.00 0.00 0.00 89 1012.2
20260509135603 60 268 0.0 1.7 0.00 0.00 0.00 88 1012.2
20260509135104 60 262 0.0 2.6 0.00 0.00 0.00 89 1012.1
20260509134604 60 280 1.7 4.3 0.00 0.00 0.00 89 1012.1
20260509134102 60 269 0.9 4.3 0.00 0.00 0.00 89 1012.1
20260509133603 60 261 2.6 4.3 0.00 0.00 0.00 89 1012.1
20260509133329 60 263 0.0 2.6 0.00 0.00 0.00 89 1011.9
20260509132604 60 272 0.9 2.6 0.00 0.00 0.00 89 1012.0
20260509132102 60 262 0.9 2.6 0.00 0.00 0.00 89 1011.9
20260509131604 60 326 2.6 2.6 0.00 0.00 0.00 88 1011.8
20260509131104 60 290 1.7 2.6 0.00 0.00 0.00 89 1011.8
20260509130604 60 291 1.7 1.7 0.00 0.00 0.00 89 1011.9
20260509125602 60 265 0.0 1.7 0.00 0.00 0.00 90 1011.9
20260509125103 60 283 1.7 1.7 0.00 0.00 0.00 90 1011.9
20260509124603 60 263 0.9 1.7 0.00 0.00 0.00 90 1011.9
20260509124102 60 252 0.9 2.6 0.00 0.00 0.00 90 1011.9
20260509123601 60 259 2.6 5.2 0.00 0.00 0.00 89 1011.9
20260509123102 60 257 0.0 5.2 0.00 0.00 0.00 89 1011.9
20260509122604 60 306 3.5 4.3 0.00 0.00 0.00 89 1011.9
20260509122101 60 301 0.0 5.2 0.00 0.00 0.00 89 1011.8
20260509121824 60 273 1.7 5.2 0.00 0.00 0.00 89 1011.8
20260509121102 60 268 1.7 1.7 0.00 0.00 0.00 89 1011.8
20260509120601 60 252 0.0 1.7 0.00 0.00 0.00 89 1011.8
20260509120101 60 252 0.0 1.7 0.00 0.00 0.00 89 1011.9
20260509115601 60 263 0.0 0.0 0.00 0.00 0.00 89 1011.7
20260509115102 60 261 0.0 0.0 0.00 0.00 0.00 90 1011.7
20260509114603 60 262 0.0 2.6 0.00 0.00 0.00 90 1011.8
20260509114100 60 276 0.0 2.6 0.00 0.00 0.00 90 1011.7
20260509113817 60 273 1.7 2.6 0.00 0.00 0.00 90 1011.7
20260509113321 60 279 2.6 2.6 0.00 0.00 0.00 90 1011.7
20260509112601 60 272 0.9 2.6 0.00 0.00 0.00 90 1011.8
20260509112101 60 268 1.7 4.3 0.00 0.00 0.00 90 1011.8
20260509111100 60 263 1.7 1.7 0.00 0.00 0.00 90 1011.9
20260509110603 60 266 0.9 1.7 0.00 0.00 0.00 90 1011.9
20260509110100 60 259 0.9 1.7 0.00 0.00 0.00 90 1012.0
20260509105059 60 243 0.9 2.6 0.00 0.00 0.00 90 1012.0
20260509104559 60 266 0.9 2.6 0.00 0.00 0.00 90 1011.9
20260509104101 60 244 0.0 0.9 0.00 0.00 0.00 90 1011.9
20260509103821 60 245 0.0 2.6 0.00 0.00 0.00 90 1011.8
20260509103059 60 252 0.9 2.6 0.00 0.00 0.00 90 1011.8
20260509102559 60 262 0.0 1.7 0.00 0.00 0.00 90 1011.9
20260509102059 60 252 0.0 4.3 0.00 0.00 0.00 90 1011.9
20260509101558 60 248 0.9 4.3 0.00 0.00 0.00 90 1012.0
20260509101059 60 264 1.7 2.6 0.00 0.00 0.00 90 1012.0
20260509100107 60 324 1.7 2.6 0.00 0.00 0.00 90 1011.9
20260509095608 60 279 0.0 4.3 0.00 0.00 0.00 90 1012.0
20260509095108 60 314 1.7 4.3 0.00 0.00 0.00 90 1011.9
20260509094608 60 261 1.7 1.7 0.00 0.00 0.00 90 1012.0
20260509094107 60 263 0.0 0.0 0.00 0.00 0.00 90 1012.0
20260509093609 61 253 0.0 0.0 0.00 0.00 0.00 90 1012.2
20260509093107 61 224 0.0 0.9 0.00 0.00 0.00 90 1012.2
20260509092606 61 252 0.0 2.6 0.00 0.00 0.00 90 1012.2
20260509092106 61 267 0.9 2.6 0.00 0.00 0.00 90 1012.3
20260509091826 61 257 0.9 1.7 0.00 0.00 0.00 90 1012.3
20260509091109 61 256 0.0 1.7 0.00 0.00 0.00 90 1012.3
20260509090605 61 260 0.9 2.6 0.00 0.00 0.00 90 1012.4
20260509090108 61 256 0.9 2.6 0.00 0.00 0.00 90 1012.4
20260509085607 61 262 0.0 2.6 0.00 0.00 0.00 90 1012.5
20260509085108 61 264 0.0 0.0 0.00 0.00 0.00 90 1012.4
20260509084607 61 266 0.0 1.7 0.00 0.00 0.00 90 1012.6
20260509083607 61 251 0.0 0.9 0.00 0.00 0.00 90 1012.7
20260509083106 61 267 0.0 4.3 0.00 0.00 0.00 90 1012.6
20260509082606 61 245 0.0 4.3 0.00 0.00 0.00 90 1012.6
20260509082105 61 206 2.6 4.3 0.00 0.00 0.00 90 1012.5
20260509081106 61 252 0.0 4.3 0.00 0.00 0.00 90 1012.6
20260509080605 61 256 1.7 4.3 0.00 0.00 0.00 90 1012.7
20260509080105 61 301 0.9 2.6 0.00 0.00 0.00 90 1012.7
20260509075604 61 263 0.0 2.6 0.00 0.00 0.00 90 1012.7
20260509075106 61 269 0.9 0.9 0.00 0.00 0.00 90 1012.7
20260509074832 61 271 0.0 0.9 0.00 0.00 0.00 89 1012.8
20260509074104 61 257 0.0 2.6 0.00 0.00 0.00 89 1012.9
20260509073604 61 252 0.0 4.3 0.00 0.00 0.00 90 1012.9
20260509073330 61 209 2.6 4.3 0.00 0.00 0.00 90 1012.9
20260509072605 61 249 0.0 0.9 0.00 0.00 0.00 89 1012.8
20260509072104 61 248 0.0 2.6 0.00 0.00 0.00 89 1012.9
20260509071828 61 254 0.9 2.6 0.00 0.00 0.00 89 1013.0
20260509071104 61 225 1.7 4.3 0.00 0.00 0.00 89 1013.0
20260509070605 61 238 0.9 4.3 0.00 0.00 0.00 89 1013.0
20260509070105 61 247 0.0 2.6 0.00 0.00 0.00 89 1013.1
20260509065603 61 270 0.0 4.3 0.00 0.00 0.00 89 1013.1
20260509065105 61 276 0.9 4.3 0.00 0.00 0.00 89 1013.2
20260509064604 61 268 0.9 4.3 0.00 0.00 0.00 89 1013.3
20260509064103 61 265 0.9 4.3 0.00 0.00 0.00 89 1013.2
20260509063603 61 254 1.7 4.3 0.00 0.00 0.00 89 1013.2
20260509063104 61 275 1.7 4.3 0.00 0.00 0.00 89 1013.2
20260509062603 61 267 0.9 2.6 0.00 0.00 0.00 89 1013.2
20260509062102 61 274 0.9 1.7 0.00 0.00 0.00 89 1013.1
20260509061603 61 267 0.0 0.0 0.00 0.00 0.00 89 1013.1
20260509061104 61 256 0.0 1.7 0.00 0.00 0.00 89 1013.2
20260509060605 61 273 0.0 1.7 0.00 0.00 0.00 89 1013.2
20260509055602 61 258 0.9 4.3 0.00 0.00 0.00 89 1013.3
20260509055333 61 263 0.9 4.3 0.00 0.00 0.00 89 1013.3
20260509054604 61 266 0.0 4.3 0.00 0.00 0.00 89 1013.3
20260509054101 61 296 0.9 4.3 0.00 0.00 0.00 89 1013.3
20260509053601 61 321 1.7 4.3 0.00 0.00 0.00 89 1013.3
20260509053103 61 255 0.0 4.3 0.00 0.00 0.00 89 1013.3
20260509052604 61 305 1.7 5.2 0.00 0.00 0.00 89 1013.4
20260509052103 61 278 0.9 5.2 0.00 0.00 0.00 89 1013.4
20260509051601 62 257 0.0 4.3 0.00 0.00 0.00 89 1013.5
20260509051105 62 263 2.6 4.3 0.00 0.00 0.00 89 1013.4
20260509050603 62 251 2.6 5.2 0.00 0.00 0.00 88 1013.5
20260509045601 62 266 3.5 5.2 0.00 0.00 0.00 88 1013.4
20260509045100 62 285 1.7 4.3 0.00 0.00 0.00 88 1013.4
20260509044602 62 254 2.6 4.3 0.00 0.00 0.00 88 1013.4
20260509044101 62 311 1.7 4.3 0.00 0.00 0.00 88 1013.3
20260509043601 62 281 0.9 6.1 0.00 0.00 0.00 88 1013.3
20260509043100 62 297 3.5 6.1 0.00 0.00 0.00 88 1013.3
20260509042602 62 292 2.6 7.0 0.00 0.00 0.00 88 1013.3
20260509042102 62 325 2.6 7.8 0.00 0.00 0.00 88 1013.2
20260509041601 62 344 6.1 7.8 0.00 0.00 0.00 88 1013.2
20260509041101 62 348 6.1 8.7 0.00 0.00 0.00 87 1013.1
20260509040603 62 352 5.2 10.4 0.00 0.00 0.00 88 1013.1
20260509040324 62 347 7.0 10.4 0.00 0.00 0.00 88 1013.0
20260509035600 62 351 7.8 8.7 0.00 0.00 0.00 88 1013.1
20260509035100 62 294 5.2 6.1 0.00 0.00 0.00 88 1013.0
20260509034601 62 265 1.7 6.1 0.00 0.00 0.00 88 1013.1
20260509034104 62 277 4.3 6.1 0.00 0.00 0.00 88 1013.0
20260509033823 62 304 3.5 6.1 0.00 0.00 0.00 88 1012.9
20260509033100 62 332 4.3 6.1 0.00 0.00 0.00 88 1012.8
20260509032602 62 301 1.7 5.2 0.00 0.00 0.00 89 1012.8
20260509032328 62 293 3.5 6.1 0.00 0.00 0.00 89 1012.8
20260509031558 62 263 0.0 6.1 0.00 0.00 0.00 89 1012.8
20260509031100 62 306 4.3 5.2 0.00 0.00 0.00 89 1012.8
20260509030559 62 261 1.7 5.2 0.00 0.00 0.00 89 1012.8
20260509030059 62 280 0.9 5.2 0.00 0.00 0.00 88 1012.7
20260509025557 62 342 2.6 6.1 0.00 0.00 0.00 88 1012.7
20260509025058 62 271 1.7 6.1 0.00 0.00 0.00 88 1012.6
20260509024559 62 262 1.7 6.1 0.00 0.00 0.00 88 1012.6
20260509024058 62 258 0.0 7.0 0.00 0.00 0.00 88 1012.5
20260509023559 62 265 1.7 7.0 0.00 0.00 0.00 88 1012.5
20260509023057 62 237 1.7 6.1 0.00 0.00 0.00 88 1012.5
20260509022558 63 274 1.7 6.1 0.00 0.00 0.00 87 1012.4
20260509022058 63 267 4.3 6.1 0.00 0.00 0.00 87 1012.5
20260509021558 63 326 2.6 6.1 0.00 0.00 0.00 87 1012.3
20260509021057 64 275 3.5 6.1 0.00 0.00 0.00 86 1012.4
20260509020559 64 328 3.5 7.8 0.00 0.00 0.00 85 1012.3
20260509020058 64 318 2.6 7.8 0.00 0.00 0.00 84 1012.3
20260509015556 65 323 1.7 7.0 0.00 0.00 0.00 84 1012.2
20260509015057 65 258 1.7 7.0 0.00 0.00 0.00 83 1012.2
20260509014559 65 239 2.6 7.0 0.00 0.00 0.00 82 1012.2
20260509014059 66 286 3.5 7.8 0.00 0.00 0.00 82 1012.1
20260509013556 66 273 2.6 7.8 0.00 0.00 0.00 81 1012.1
20260509013057 66 260 2.6 7.0 0.00 0.00 0.00 80 1012.2
20260509012557 66 304 2.6 7.0 0.00 0.00 0.00 79 1012.2
20260509012058 66 306 0.9 7.0 0.00 0.00 0.00 78 1012.1
20260509011556 66 345 2.6 7.0 0.00 0.00 0.00 79 1012.2
20260509011056 67 273 1.7 7.0 0.00 0.00 0.00 79 1012.2
20260509010557 67 258 1.7 7.0 0.00 0.00 0.00 79 1012.2
20260509010057 67 269 2.6 7.0 0.00 0.00 0.00 79 1012.2
20260509005556 68 241 2.6 7.0 0.00 0.00 0.00 77 1012.2
20260509005055 68 300 4.3 7.8 0.00 0.00 0.00 78 1012.2
20260509004555 68 294 5.2 7.8 0.00 0.00 0.00 77 1012.2
20260509004315 68 258 1.7 6.1 0.00 0.00 0.00 76 1012.2
20260509003557 68 251 2.6 6.1 0.00 0.00 0.00 76 1012.2
20260509003055 68 275 2.6 6.1 0.00 0.00 0.00 74 1012.2
20260509002611 68 291 2.6 7.0 0.00 0.00 0.00 75 1012.3
20260509002056 68 251 1.7 7.0 0.00 0.00 0.00 75 1012.2
20260509001559 69 211 1.7 7.0 0.00 0.00 0.00 75 1012.2
20260509001315 69 262 3.5 7.0 0.00 0.00 0.00 74 1012.2
20260509000554 69 284 0.9 7.0 0.00 0.00 0.00 74 1012.3
20260509000326 69 261 1.7 7.8 0.00 0.00 0.00 73 1012.3
20260508235557 69 328 4.3 7.8 0.00 0.00 0.00 75 1012.3
20260508235055 69 258 2.6 7.0 0.00 0.00 0.00 75 1012.4
20260508234554 69 243 2.6 7.8 0.00 0.00 0.00 72 1012.4
20260508234055 68 304 4.3 8.7 0.00 0.00 0.00 74 1012.5
20260508233555 68 331 4.3 8.7 0.00 0.00 0.00 72 1012.4
20260508233053 68 257 2.6 7.8 0.00 0.00 0.00 73 1012.4
20260508232553 68 310 5.2 7.8 0.00 0.00 0.00 74 1012.4
20260508232053 68 359 3.5 8.7 0.00 0.00 0.00 74 1012.4
20260508231816 68 319 2.6 8.7 0.00 0.00 0.00 74 1012.6
20260508231052 68 8 5.2 8.7 0.00 0.00 0.00 75 1012.6
20260508230823 68 340 4.3 7.0 0.00 0.00 0.00 73 1012.7
20260508230314 67 339 2.6 8.7 0.00 0.00 0.00 75 1012.7
20260508225554 67 287 5.2 11.3 0.00 0.00 0.00 74 1012.7
20260508225054 67 215 2.6 11.3 0.00 0.00 0.00 74 1012.7
20260508224553 67 303 5.2 8.7 0.00 0.00 0.00 75 1012.7
20260508224052 67 332 5.2 11.3 0.00 0.00 0.00 73 1012.9